| time (UTC) | temp C | wind direction | speed KPH | gust KPH | rain 1hr cm | rain 24hr cm | rain mn cm | humidity % | barometer mb |
| 20260508023814 | 22 | 55 | 1.6 | 3.2 | 0.00 | 0.00 | 0.00 | 95 | 1017.1 |
| 20260508023310 | 22 | 45 | 3.2 | 4.8 | 0.00 | 0.00 | 0.00 | 95 | 1017.2 |
| 20260508022807 | 22 | 81 | 3.2 | 3.2 | 0.00 | 0.00 | 0.00 | 95 | 1017.3 |
| 20260508022306 | 22 | 86 | 1.6 | 3.2 | 0.00 | 0.00 | 0.00 | 95 | 1017.2 |
| 20260508021800 | 22 | 72 | 3.2 | 4.8 | 0.00 | 0.00 | 0.00 | 95 | 1017.3 |
| 20260508021256 | 22 | 76 | 3.2 | 3.2 | 0.00 | 0.00 | 0.00 | 95 | 1017.3 |
| 20260508020752 | 22 | 78 | 3.2 | 4.8 | 0.00 | 0.00 | 0.00 | 95 | 1017.3 |
| 20260508020250 | 22 | 85 | 3.2 | 4.8 | 0.00 | 0.00 | 0.00 | 94 | 1017.3 |
| 20260508015747 | 22 | 68 | 3.2 | 3.2 | 0.00 | 0.00 | 0.00 | 95 | 1017.1 |
| 20260508015244 | 22 | 88 | 3.2 | 3.2 | 0.00 | 0.00 | 0.00 | 95 | 1017.2 |
| 20260508014741 | 22 | 80 | 1.6 | 4.8 | 0.00 | 0.00 | 0.00 | 94 | 1017.1 |
| 20260508014238 | 23 | 59 | 1.6 | 3.2 | 0.00 | 0.00 | 0.00 | 94 | 1017.2 |
| 20260508013733 | 23 | 91 | 3.2 | 3.2 | 0.00 | 0.00 | 0.00 | 94 | 1017.3 |
| 20260508013230 | 23 | 78 | 4.8 | 4.8 | 0.00 | 0.00 | 0.00 | 94 | 1017.1 |
| 20260508012728 | 23 | 63 | 1.6 | 3.2 | 0.00 | 0.00 | 0.00 | 94 | 1016.9 |
| 20260508012224 | 23 | 93 | 3.2 | 3.2 | 0.00 | 0.00 | 0.00 | 94 | 1016.9 |
| 20260508011723 | 23 | 78 | 3.2 | 3.2 | 0.00 | 0.00 | 0.00 | 94 | 1017.0 |
| 20260508011220 | 23 | 63 | 1.6 | 4.8 | 0.00 | 0.00 | 0.00 | 94 | 1016.8 |
| 20260508010716 | 23 | 76 | 3.2 | 3.2 | 0.00 | 0.00 | 0.00 | 94 | 1017.0 |
| 20260508010214 | 23 | 87 | 3.2 | 3.2 | 0.00 | 0.00 | 0.00 | 94 | 1017.0 |
| 20260508005711 | 23 | 87 | 3.2 | 3.2 | 0.00 | 0.00 | 0.00 | 93 | 1016.9 |
| 20260508005208 | 23 | 58 | 3.2 | 3.2 | 0.00 | 0.00 | 0.00 | 93 | 1016.9 |
| 20260508004703 | 23 | 83 | 3.2 | 4.8 | 0.00 | 0.00 | 0.00 | 93 | 1016.8 |
| 20260508004200 | 23 | 94 | 3.2 | 4.8 | 0.00 | 0.00 | 0.00 | 93 | 1017.0 |
| 20260508003657 | 23 | 96 | 3.2 | 3.2 | 0.00 | 0.00 | 0.00 | 92 | 1016.9 |
| 20260508003154 | 23 | 76 | 3.2 | 3.2 | 0.00 | 0.00 | 0.00 | 92 | 1016.5 |
| 20260508002650 | 23 | 86 | 3.2 | 3.2 | 0.00 | 0.00 | 0.00 | 92 | 1016.6 |
| 20260508002149 | 23 | 84 | 3.2 | 4.8 | 0.00 | 0.00 | 0.00 | 92 | 1016.5 |
| 20260508001643 | 23 | 87 | 3.2 | 3.2 | 0.00 | 0.00 | 0.00 | 91 | 1016.5 |
| 20260508001140 | 23 | 81 | 3.2 | 4.8 | 0.00 | 0.00 | 0.00 | 91 | 1016.5 |
| 20260508000636 | 23 | 81 | 3.2 | 3.2 | 0.00 | 0.00 | 0.00 | 90 | 1016.5 |
| 20260508000133 | 23 | 92 | 3.2 | 6.4 | 0.00 | 0.00 | 0.00 | 90 | 1016.5 |
| 20260507235630 | 24 | 73 | 3.2 | 4.8 | 0.00 | 0.00 | 0.00 | 90 | 1016.3 |
| 20260507235127 | 24 | 83 | 3.2 | 4.8 | 0.00 | 0.00 | 0.00 | 89 | 1016.4 |
| 20260507234624 | 23 | 58 | 3.2 | 3.2 | 0.00 | 0.00 | 0.00 | 89 | 1016.2 |
| 20260507234120 | 24 | 85 | 1.6 | 3.2 | 0.00 | 0.00 | 0.00 | 89 | 1016.3 |
| 20260507233617 | 24 | 77 | 3.2 | 3.2 | 0.00 | 0.00 | 0.00 | 88 | 1016.1 |
| 20260507233116 | 24 | 69 | 3.2 | 4.8 | 0.00 | 0.00 | 0.00 | 87 | 1016.2 |
| 20260507232612 | 25 | 70 | 1.6 | 3.2 | 0.00 | 0.00 | 0.00 | 87 | 1015.9 |
| 20260507232109 | 25 | 86 | 3.2 | 3.2 | 0.00 | 0.00 | 0.00 | 86 | 1016.1 |
| 20260507231605 | 25 | 94 | 3.2 | 4.8 | 0.00 | 0.00 | 0.00 | 84 | 1015.8 |
| 20260507231103 | 25 | 71 | 3.2 | 4.8 | 0.00 | 0.00 | 0.00 | 83 | 1015.6 |
| 20260507230559 | 25 | 130 | 0.0 | 1.6 | 0.00 | 0.00 | 0.00 | 83 | 1015.4 |
| 20260507230056 | 26 | 89 | 0.0 | 3.2 | 0.00 | 0.00 | 0.00 | 83 | 1015.3 |
| 20260507225551 | 26 | 113 | 1.6 | 3.2 | 0.00 | 0.00 | 0.00 | 81 | 1015.3 |
| 20260507225047 | 26 | 79 | 3.2 | 3.2 | 0.00 | 0.00 | 0.00 | 80 | 1015.1 |
| 20260507224543 | 26 | 78 | 3.2 | 4.8 | 0.00 | 0.00 | 0.00 | 80 | 1015.2 |
| 20260507224040 | 26 | 64 | 4.8 | 6.4 | 0.00 | 0.00 | 0.00 | 79 | 1015.3 |
| 20260507223536 | 26 | 55 | 3.2 | 11.3 | 0.00 | 0.00 | 0.00 | 79 | 1015.4 |
| 20260507223033 | 26 | 68 | 0.0 | 8.0 | 0.00 | 0.00 | 0.00 | 79 | 1015.3 |
| 20260507222530 | 27 | 142 | 3.2 | 6.4 | 0.00 | 0.00 | 0.00 | 78 | 1015.4 |
| 20260507222027 | 27 | 79 | 3.2 | 8.0 | 0.00 | 0.00 | 0.00 | 78 | 1015.3 |
| 20260507221523 | 27 | 102 | 6.4 | 9.7 | 0.00 | 0.00 | 0.00 | 78 | 1015.2 |
| 20260507221020 | 27 | 70 | 4.8 | 4.8 | 0.00 | 0.00 | 0.00 | 78 | 1015.5 |
| 20260507220517 | 27 | 202 | 4.8 | 9.7 | 0.00 | 0.00 | 0.00 | 77 | 1015.2 |
| 20260507220015 | 27 | 14 | 3.2 | 8.0 | 0.00 | 0.00 | 0.00 | 76 | 1015.2 |
| 20260507215510 | 27 | 85 | 3.2 | 11.3 | 0.00 | 0.00 | 0.00 | 75 | 1015.2 |
| 20260507215009 | 27 | 73 | 3.2 | 14.5 | 0.00 | 0.00 | 0.00 | 73 | 1015.2 |
| 20260507214505 | 27 | 1 | 3.2 | 9.7 | 0.00 | 0.00 | 0.00 | 73 | 1014.8 |
| 20260507214001 | 28 | 99 | 11.3 | 14.5 | 0.00 | 0.00 | 0.00 | 72 | 1014.7 |
| 20260507213458 | 28 | 78 | 9.7 | 19.3 | 0.00 | 0.00 | 0.00 | 71 | 1014.7 |
| 20260507212955 | 28 | 177 | 4.8 | 17.7 | 0.00 | 0.00 | 0.00 | 70 | 1014.8 |
| 20260507212450 | 28 | 95 | 8.0 | 9.7 | 0.00 | 0.00 | 0.00 | 71 | 1014.8 |
| 20260507211948 | 28 | 277 | 1.6 | 16.1 | 0.00 | 0.00 | 0.00 | 71 | 1014.8 |
| 20260507211444 | 28 | 228 | 8.0 | 14.5 | 0.00 | 0.00 | 0.00 | 70 | 1014.7 |
| 20260507210941 | 28 | 230 | 11.3 | 24.1 | 0.00 | 0.00 | 0.00 | 70 | 1014.7 |
| 20260507210438 | 28 | 191 | 11.3 | 27.4 | 0.00 | 0.00 | 0.00 | 73 | 1014.7 |
| 20260507205935 | 30 | 217 | 12.9 | 20.9 | 0.00 | 0.00 | 0.00 | 70 | 1014.8 |
| 20260507205432 | 30 | 71 | 1.6 | 17.7 | 0.00 | 0.00 | 0.00 | 70 | 1014.8 |
| 20260507204928 | 29 | 85 | 12.9 | 12.9 | 0.00 | 0.00 | 0.00 | 72 | 1014.5 |
| 20260507204424 | 30 | 218 | 6.4 | 19.3 | 0.00 | 0.00 | 0.00 | 70 | 1014.6 |
| 20260507203922 | 30 | 238 | 0.0 | 16.1 | 0.00 | 0.00 | 0.00 | 69 | 1014.5 |
| 20260507203420 | 30 | 179 | 1.6 | 11.3 | 0.00 | 0.00 | 0.00 | 69 | 1014.6 |
| 20260507202916 | 30 | 182 | 6.4 | 27.4 | 0.00 | 0.00 | 0.00 | 68 | 1014.6 |
| 20260507202413 | 30 | 203 | 12.9 | 25.7 | 0.00 | 0.00 | 0.00 | 67 | 1014.5 |
| 20260507201908 | 30 | 249 | 9.7 | 19.3 | 0.00 | 0.00 | 0.00 | 67 | 1014.6 |
| 20260507201404 | 30 | 30 | 6.4 | 8.0 | 0.00 | 0.00 | 0.00 | 68 | 1014.9 |
| 20260507200901 | 29 | 204 | 9.7 | 17.7 | 0.00 | 0.00 | 0.00 | 71 | 1014.6 |
| 20260507200356 | 28 | 326 | 3.2 | 9.7 | 0.00 | 0.00 | 0.00 | 73 | 1014.7 |
| 20260507195852 | 28 | 225 | 11.3 | 14.5 | 0.00 | 0.00 | 0.00 | 73 | 1014.9 |
| 20260507195350 | 28 | 206 | 11.3 | 19.3 | 0.00 | 0.00 | 0.00 | 72 | 1014.7 |
| 20260507194847 | 29 | 108 | 3.2 | 8.0 | 0.00 | 0.00 | 0.00 | 72 | 1014.9 |
| 20260507194343 | 29 | 23 | 8.0 | 9.7 | 0.00 | 0.00 | 0.00 | 71 | 1014.9 |
| 20260507193840 | 29 | 79 | 3.2 | 14.5 | 0.00 | 0.00 | 0.00 | 72 | 1014.9 |
| 20260507193337 | 29 | 218 | 14.5 | 24.1 | 0.00 | 0.00 | 0.00 | 71 | 1015.0 |
| 20260507192833 | 30 | 91 | 6.4 | 19.3 | 0.00 | 0.00 | 0.00 | 71 | 1015.2 |
| 20260507192330 | 30 | 212 | 11.3 | 33.8 | 0.00 | 0.00 | 0.00 | 70 | 1015.1 |
| 20260507191826 | 30 | 191 | 4.8 | 24.1 | 0.00 | 0.00 | 0.00 | 70 | 1015.1 |
| 20260507191322 | 29 | 207 | 8.0 | 25.7 | 0.00 | 0.00 | 0.00 | 71 | 1015.2 |
| 20260507190819 | 30 | 177 | 1.6 | 12.9 | 0.00 | 0.00 | 0.00 | 70 | 1015.2 |
| 20260507190318 | 30 | 178 | 6.4 | 22.5 | 0.00 | 0.00 | 0.00 | 72 | 1015.1 |
| 20260507185816 | 30 | 89 | 6.4 | 9.7 | 0.00 | 0.00 | 0.00 | 72 | 1015.2 |
| 20260507185313 | 29 | 83 | 4.8 | 19.3 | 0.00 | 0.00 | 0.00 | 72 | 1015.4 |
| 20260507184810 | 30 | 60 | 14.5 | 16.1 | 0.00 | 0.00 | 0.00 | 73 | 1015.3 |
| 20260507184308 | 30 | 111 | 12.9 | 17.7 | 0.00 | 0.00 | 0.00 | 71 | 1015.4 |
| 20260507183804 | 30 | 57 | 9.7 | 12.9 | 0.00 | 0.00 | 0.00 | 70 | 1015.3 |
| 20260507183302 | 30 | 188 | 3.2 | 22.5 | 0.00 | 0.00 | 0.00 | 71 | 1015.3 |
| 20260507182759 | 30 | 124 | 9.7 | 20.9 | 0.00 | 0.00 | 0.00 | 70 | 1015.4 |
| 20260507182254 | 30 | 156 | 6.4 | 19.3 | 0.00 | 0.00 | 0.00 | 70 | 1015.4 |
| 20260507181751 | 30 | 89 | 11.3 | 22.5 | 0.00 | 0.00 | 0.00 | 70 | 1015.5 |
| 20260507181247 | 30 | 115 | 6.4 | 19.3 | 0.00 | 0.00 | 0.00 | 71 | 1015.6 |
| 20260507180744 | 30 | 82 | 6.4 | 14.5 | 0.00 | 0.00 | 0.00 | 71 | 1015.6 |
| 20260507180241 | 30 | 118 | 8.0 | 19.3 | 0.00 | 0.00 | 0.00 | 70 | 1015.6 |
| 20260507175736 | 30 | 106 | 6.4 | 6.4 | 0.00 | 0.00 | 0.00 | 70 | 1015.7 |
| 20260507175233 | 30 | 99 | 11.3 | 27.4 | 0.00 | 0.00 | 0.00 | 72 | 1015.9 |
| 20260507174731 | 30 | 199 | 8.0 | 24.1 | 0.00 | 0.00 | 0.00 | 72 | 1015.7 |
| 20260507174229 | 30 | 61 | 14.5 | 17.7 | 0.00 | 0.00 | 0.00 | 71 | 1016.2 |
| 20260507173726 | 30 | 124 | 8.0 | 16.1 | 0.00 | 0.00 | 0.00 | 72 | 1016.0 |
| 20260507173222 | 30 | 82 | 12.9 | 22.5 | 0.00 | 0.00 | 0.00 | 72 | 1016.2 |
| 20260507172719 | 30 | 87 | 9.7 | 17.7 | 0.00 | 0.00 | 0.00 | 72 | 1016.1 |
| 20260507172216 | 30 | 51 | 6.4 | 16.1 | 0.00 | 0.00 | 0.00 | 71 | 1016.3 |
| 20260507171716 | 29 | 92 | 11.3 | 17.7 | 0.00 | 0.00 | 0.00 | 74 | 1016.5 |
| 20260507171214 | 30 | 165 | 6.4 | 22.5 | 0.00 | 0.00 | 0.00 | 73 | 1016.6 |
| 20260507170710 | 29 | 181 | 4.8 | 19.3 | 0.00 | 0.00 | 0.00 | 73 | 1016.5 |
| 20260507170208 | 30 | 83 | 14.5 | 16.1 | 0.00 | 0.00 | 0.00 | 71 | 1016.6 |
| 20260507165703 | 30 | 57 | 12.9 | 22.5 | 0.00 | 0.00 | 0.00 | 72 | 1016.8 |
| 20260507165200 | 29 | 215 | 6.4 | 24.1 | 0.00 | 0.00 | 0.00 | 72 | 1017.0 |
| 20260507164656 | 30 | 139 | 4.8 | 14.5 | 0.00 | 0.00 | 0.00 | 72 | 1017.0 |
| 20260507164153 | 29 | 81 | 14.5 | 19.3 | 0.00 | 0.00 | 0.00 | 74 | 1016.9 |
| 20260507163650 | 29 | 133 | 12.9 | 17.7 | 0.00 | 0.00 | 0.00 | 75 | 1017.2 |
| 20260507163148 | 28 | 105 | 8.0 | 19.3 | 0.00 | 0.00 | 0.00 | 75 | 1017.3 |
| 20260507162643 | 30 | 143 | 4.8 | 12.9 | 0.00 | 0.00 | 0.00 | 73 | 1017.3 |
| 20260507162140 | 29 | 197 | 3.2 | 20.9 | 0.00 | 0.00 | 0.00 | 75 | 1017.3 |
| 20260507161636 | 28 | 138 | 4.8 | 17.7 | 0.00 | 0.00 | 0.00 | 75 | 1017.3 |
| 20260507161133 | 28 | 95 | 16.1 | 17.7 | 0.00 | 0.00 | 0.00 | 74 | 1017.4 |
| 20260507160629 | 29 | 242 | 6.4 | 19.3 | 0.00 | 0.00 | 0.00 | 75 | 1017.4 |
| 20260507160126 | 28 | 128 | 3.2 | 8.0 | 0.00 | 0.00 | 0.00 | 78 | 1017.5 |
| 20260507155621 | 28 | 148 | 9.7 | 22.5 | 0.00 | 0.00 | 0.00 | 75 | 1017.7 |
| 20260507155118 | 28 | 98 | 8.0 | 24.1 | 0.00 | 0.00 | 0.00 | 76 | 1017.4 |
| 20260507154615 | 28 | 103 | 4.8 | 19.3 | 0.00 | 0.00 | 0.00 | 73 | 1017.5 |
| 20260507154112 | 28 | 15 | 1.6 | 22.5 | 0.00 | 0.00 | 0.00 | 74 | 1017.6 |
| 20260507153609 | 29 | 81 | 6.4 | 24.1 | 0.00 | 0.00 | 0.00 | 73 | 1017.6 |
| 20260507153106 | 29 | 78 | 14.5 | 20.9 | 0.00 | 0.00 | 0.00 | 71 | 1017.7 |
| 20260507152602 | 29 | 226 | 17.7 | 25.7 | 0.00 | 0.00 | 0.00 | 73 | 1017.7 |
| 20260507152058 | 30 | 336 | 1.6 | 16.1 | 0.00 | 0.00 | 0.00 | 71 | 1017.7 |
| 20260507151554 | 29 | 228 | 9.7 | 17.7 | 0.00 | 0.00 | 0.00 | 73 | 1017.7 |
| 20260507151051 | 29 | 139 | 11.3 | 22.5 | 0.00 | 0.00 | 0.00 | 71 | 1017.9 |
| 20260507150548 | 29 | 98 | 11.3 | 16.1 | 0.00 | 0.00 | 0.00 | 71 | 1017.6 |
| 20260507150045 | 30 | 83 | 11.3 | 22.5 | 0.00 | 0.00 | 0.00 | 70 | 1017.8 |
| 20260507145540 | 30 | 96 | 9.7 | 11.3 | 0.00 | 0.00 | 0.00 | 71 | 1017.8 |
| 20260507145038 | 29 | 79 | 6.4 | 14.5 | 0.00 | 0.00 | 0.00 | 73 | 1017.6 |
| 20260507144534 | 30 | 332 | 0.0 | 20.9 | 0.00 | 0.00 | 0.00 | 72 | 1017.9 |
| 20260507144032 | 30 | 103 | 8.0 | 19.3 | 0.00 | 0.00 | 0.00 | 74 | 1017.6 |
| 20260507143529 | 30 | 99 | 14.5 | 20.9 | 0.00 | 0.00 | 0.00 | 73 | 1017.7 |
| 20260507143026 | 30 | 130 | 9.7 | 17.7 | 0.00 | 0.00 | 0.00 | 73 | 1017.8 |
| 20260507142522 | 30 | 105 | 8.0 | 19.3 | 0.00 | 0.00 | 0.00 | 73 | 1017.9 |
| 20260507142019 | 29 | 136 | 6.4 | 19.3 | 0.00 | 0.00 | 0.00 | 72 | 1018.0 |
| 20260507141515 | 29 | 89 | 1.6 | 17.7 | 0.00 | 0.00 | 0.00 | 72 | 1018.1 |
| 20260507141011 | 29 | 114 | 9.7 | 19.3 | 0.00 | 0.00 | 0.00 | 72 | 1018.0 |
| 20260507140508 | 28 | 148 | 6.4 | 17.7 | 0.00 | 0.00 | 0.00 | 74 | 1018.0 |
| 20260507140006 | 29 | 173 | 4.8 | 20.9 | 0.00 | 0.00 | 0.00 | 73 | 1018.1 |
| 20260507135502 | 28 | 345 | 1.6 | 11.3 | 0.00 | 0.00 | 0.00 | 78 | 1018.1 |
| 20260507134959 | 28 | 242 | 3.2 | 9.7 | 0.00 | 0.00 | 0.00 | 78 | 1017.9 |
| 20260507134456 | 28 | 153 | 4.8 | 14.5 | 0.00 | 0.00 | 0.00 | 77 | 1018.2 |
| 20260507133952 | 28 | 66 | 4.8 | 12.9 | 0.00 | 0.00 | 0.00 | 76 | 1017.9 |
| 20260507133448 | 28 | 82 | 8.0 | 11.3 | 0.00 | 0.00 | 0.00 | 75 | 1018.0 |
| 20260507132947 | 29 | 129 | 3.2 | 16.1 | 0.00 | 0.00 | 0.00 | 72 | 1017.8 |
| 20260507132442 | 30 | 115 | 14.5 | 20.9 | 0.00 | 0.00 | 0.00 | 70 | 1017.9 |
| 20260507131938 | 29 | 87 | 14.5 | 16.1 | 0.00 | 0.00 | 0.00 | 72 | 1017.7 |
| 20260507131436 | 29 | 33 | 4.8 | 16.1 | 0.00 | 0.00 | 0.00 | 74 | 1017.4 |
| 20260507130933 | 29 | 85 | 9.7 | 12.9 | 0.00 | 0.00 | 0.00 | 73 | 1017.6 |
| 20260507130430 | 29 | 250 | 6.4 | 16.1 | 0.00 | 0.00 | 0.00 | 74 | 1017.7 |
| 20260507125929 | 28 | 249 | 3.2 | 17.7 | 0.00 | 0.00 | 0.00 | 75 | 1017.6 |
| 20260507125426 | 28 | 219 | 0.0 | 8.0 | 0.00 | 0.00 | 0.00 | 75 | 1017.5 |
| 20260507124924 | 28 | 82 | 6.4 | 9.7 | 0.00 | 0.00 | 0.00 | 76 | 1017.6 |
| 20260507124419 | 28 | 95 | 8.0 | 17.7 | 0.00 | 0.00 | 0.00 | 76 | 1017.7 |
| 20260507123918 | 28 | 147 | 3.2 | 8.0 | 0.00 | 0.00 | 0.00 | 78 | 1017.6 |
| 20260507123415 | 28 | 43 | 3.2 | 12.9 | 0.00 | 0.00 | 0.00 | 81 | 1017.7 |
| 20260507122911 | 28 | 84 | 6.4 | 6.4 | 0.00 | 0.00 | 0.00 | 79 | 1017.7 |
| 20260507122406 | 28 | 63 | 0.0 | 8.0 | 0.00 | 0.00 | 0.00 | 79 | 1017.5 |
| 20260507121903 | 28 | 160 | 1.6 | 9.7 | 0.00 | 0.00 | 0.00 | 78 | 1017.4 |
| 20260507121358 | 28 | 353 | 3.2 | 6.4 | 0.00 | 0.00 | 0.00 | 81 | 1017.2 |
| 20260507120855 | 27 | 297 | 0.0 | 8.0 | 0.00 | 0.00 | 0.00 | 83 | 1017.1 |
| 20260507120352 | 27 | 75 | 1.6 | 4.8 | 0.00 | 0.00 | 0.00 | 83 | 1017.1 |
| 20260507115848 | 27 | 79 | 1.6 | 8.0 | 0.00 | 0.00 | 0.00 | 85 | 1017.3 |
| 20260507115343 | 27 | 205 | 1.6 | 4.8 | 0.00 | 0.00 | 0.00 | 84 | 1017.2 |
| 20260507114839 | 27 | 190 | 3.2 | 4.8 | 0.00 | 0.00 | 0.00 | 83 | 1017.1 |
| 20260507114337 | 27 | 209 | 0.0 | 3.2 | 0.00 | 0.00 | 0.00 | 81 | 1017.2 |
| 20260507113834 | 28 | 60 | 0.0 | 3.2 | 0.00 | 0.00 | 0.00 | 81 | 1017.0 |
| 20260507113331 | 28 | 94 | 3.2 | 3.2 | 0.00 | 0.00 | 0.00 | 81 | 1017.0 |
| 20260507112829 | 27 | 89 | 0.0 | 3.2 | 0.00 | 0.00 | 0.00 | 85 | 1016.9 |
| 20260507112326 | 26 | 67 | 4.8 | 4.8 | 0.00 | 0.00 | 0.00 | 87 | 1016.8 |
| 20260507111824 | 26 | 229 | 0.0 | 3.2 | 0.00 | 0.00 | 0.00 | 86 | 1016.7 |
| 20260507111320 | 26 | 114 | 0.0 | 1.6 | 0.00 | 0.00 | 0.00 | 90 | 1016.8 |
| 20260507110816 | 26 | 124 | 0.0 | 0.0 | 0.00 | 0.00 | 0.00 | 93 | 1016.9 |
| 20260507110312 | 25 | 101 | 0.0 | 3.2 | 0.00 | 0.00 | 0.00 | 95 | 1016.8 |
| 20260507105809 | 24 | 84 | 3.2 | 3.2 | 0.00 | 0.00 | 0.00 | 96 | 1016.9 |
| 20260507105307 | 23 | 80 | 1.6 | 3.2 | 0.00 | 0.00 | 0.00 | 97 | 1017.1 |
| 20260507104803 | 23 | 75 | 1.6 | 3.2 | 0.00 | 0.00 | 0.00 | 97 | 1016.8 |
| 20260507104259 | 22 | 64 | 1.6 | 3.2 | 0.00 | 0.00 | 0.00 | 98 | 1016.9 |
| 20260507103755 | 22 | 89 | 3.2 | 3.2 | 0.00 | 0.00 | 0.00 | 97 | 1016.8 |
| 20260507103252 | 22 | 57 | 1.6 | 4.8 | 0.00 | 0.00 | 0.00 | 97 | 1016.8 |
| 20260507102748 | 21 | 62 | 3.2 | 4.8 | 0.00 | 0.00 | 0.00 | 97 | 1016.8 |
| 20260507102245 | 21 | 62 | 1.6 | 3.2 | 0.00 | 0.00 | 0.00 | 97 | 1016.6 |
| 20260507101741 | 21 | 64 | 3.2 | 3.2 | 0.00 | 0.00 | 0.00 | 97 | 1016.6 |
| 20260507101236 | 21 | 57 | 3.2 | 3.2 | 0.05 | 0.00 | 0.00 | 97 | 1016.4 |
| 20260507100734 | 21 | 65 | 1.6 | 4.8 | 0.05 | 0.00 | 0.00 | 97 | 1016.4 |
| 20260507100232 | 21 | 40 | 3.2 | 3.2 | 0.00 | 0.00 | 0.00 | 97 | 1016.4 |
| 20260507095730 | 21 | 37 | 3.2 | 4.8 | 0.00 | 0.00 | 0.00 | 97 | 1016.5 |
| 20260507095226 | 21 | 57 | 1.6 | 3.2 | 0.00 | 0.00 | 0.00 | 97 | 1016.6 |
| 20260507094723 | 21 | 64 | 1.6 | 3.2 | 0.00 | 0.00 | 0.00 | 97 | 1016.5 |
| 20260507094220 | 21 | 78 | 3.2 | 3.2 | 0.00 | 0.00 | 0.00 | 97 | 1016.5 |
| 20260507093717 | 21 | 51 | 3.2 | 3.2 | 0.00 | 0.00 | 0.00 | 97 | 1016.4 |
| 20260507093215 | 21 | 89 | 0.0 | 3.2 | 0.00 | 0.00 | 0.00 | 97 | 1016.5 |
| 20260507092712 | 21 | 86 | 3.2 | 3.2 | 0.00 | 0.00 | 0.00 | 97 | 1016.6 |
| 20260507092209 | 21 | 53 | 3.2 | 3.2 | 0.00 | 0.00 | 0.00 | 97 | 1016.5 |
| 20260507091705 | 21 | 75 | 3.2 | 4.8 | 0.00 | 0.00 | 0.00 | 97 | 1016.4 |
| 20260507091201 | 21 | 44 | 0.0 | 3.2 | 0.00 | 0.00 | 0.00 | 97 | 1016.5 |
| 20260507090657 | 21 | 32 | 0.0 | 1.6 | 0.00 | 0.00 | 0.00 | 97 | 1016.5 |
| 20260507090154 | 22 | 86 | 3.2 | 4.8 | 0.00 | 0.00 | 0.00 | 97 | 1016.6 |
| 20260507085651 | 21 | 92 | 3.2 | 4.8 | 0.00 | 0.00 | 0.00 | 97 | 1016.4 |
| 20260507085148 | 22 | 92 | 3.2 | 4.8 | 0.00 | 0.00 | 0.00 | 97 | 1016.5 |
| 20260507084645 | 22 | 81 | 3.2 | 4.8 | 0.00 | 0.00 | 0.00 | 97 | 1016.6 |
| 20260507084141 | 22 | 66 | 1.6 | 3.2 | 0.00 | 0.00 | 0.00 | 97 | 1016.5 |
| 20260507083638 | 22 | 72 | 3.2 | 3.2 | 0.00 | 0.00 | 0.00 | 97 | 1016.4 |
| 20260507083135 | 22 | 62 | 0.0 | 1.6 | 0.00 | 0.00 | 0.00 | 97 | 1016.5 |
| 20260507082631 | 22 | 58 | 3.2 | 3.2 | 0.00 | 0.00 | 0.00 | 97 | 1016.5 |
| 20260507082127 | 22 | 80 | 3.2 | 3.2 | 0.00 | 0.00 | 0.00 | 97 | 1016.3 |
| 20260507081624 | 22 | 82 | 3.2 | 3.2 | 0.00 | 0.00 | 0.00 | 97 | 1016.3 |
| 20260507081121 | 22 | 52 | 3.2 | 3.2 | 0.00 | 0.00 | 0.00 | 97 | 1016.2 |
| 20260507080617 | 22 | 48 | 1.6 | 4.8 | 0.00 | 0.00 | 0.00 | 97 | 1016.4 |
| 20260507080115 | 22 | 74 | 3.2 | 4.8 | 0.00 | 0.00 | 0.00 | 97 | 1016.4 |
| 20260507075614 | 22 | 74 | 3.2 | 3.2 | 0.00 | 0.00 | 0.00 | 97 | 1016.3 |
| 20260507075111 | 22 | 40 | 3.2 | 4.8 | 0.00 | 0.00 | 0.00 | 97 | 1016.5 |
| 20260507074608 | 22 | 85 | 3.2 | 3.2 | 0.00 | 0.00 | 0.00 | 97 | 1016.3 |
| 20260507074106 | 22 | 65 | 3.2 | 3.2 | 0.00 | 0.00 | 0.00 | 97 | 1016.2 |
| 20260507073602 | 22 | 57 | 1.6 | 3.2 | 0.00 | 0.00 | 0.00 | 97 | 1016.3 |
| 20260507073058 | 22 | 68 | 3.2 | 3.2 | 0.00 | 0.00 | 0.00 | 97 | 1016.3 |
| 20260507072556 | 22 | 49 | 1.6 | 3.2 | 0.00 | 0.00 | 0.00 | 97 | 1016.4 |
| 20260507072053 | 22 | 33 | 3.2 | 3.2 | 0.00 | 0.00 | 0.00 | 97 | 1016.5 |
| 20260507071551 | 22 | 65 | 3.2 | 3.2 | 0.00 | 0.00 | 0.00 | 97 | 1016.4 |
| 20260507071047 | 22 | 46 | 3.2 | 3.2 | 0.00 | 0.00 | 0.00 | 97 | 1016.5 |
| 20260507070544 | 22 | 77 | 3.2 | 4.8 | 0.00 | 0.00 | 0.00 | 97 | 1016.5 |
| 20260507070041 | 22 | 84 | 3.2 | 3.2 | 0.00 | 0.00 | 0.00 | 97 | 1016.5 |
| 20260507065537 | 22 | 53 | 0.0 | 3.2 | 0.00 | 0.00 | 0.00 | 97 | 1016.9 |
| 20260507065034 | 22 | 84 | 3.2 | 3.2 | 0.00 | 0.00 | 0.00 | 97 | 1016.7 |
| 20260507064532 | 22 | 60 | 3.2 | 3.2 | 0.00 | 0.00 | 0.00 | 97 | 1016.7 |
| 20260507064031 | 22 | 81 | 3.2 | 3.2 | 0.00 | 0.00 | 0.00 | 97 | 1016.8 |
| 20260507063527 | 22 | 71 | 3.2 | 3.2 | 0.00 | 0.00 | 0.00 | 97 | 1016.8 |
| 20260507063025 | 22 | 53 | 3.2 | 3.2 | 0.00 | 0.00 | 0.00 | 97 | 1016.8 |
| 20260507062521 | 22 | 72 | 3.2 | 4.8 | 0.00 | 0.00 | 0.00 | 97 | 1016.8 |
| 20260507062019 | 22 | 61 | 3.2 | 4.8 | 0.00 | 0.00 | 0.00 | 97 | 1017.0 |
| 20260507061517 | 22 | 60 | 3.2 | 4.8 | 0.00 | 0.00 | 0.00 | 97 | 1017.0 |
| 20260507061015 | 22 | 57 | 3.2 | 3.2 | 0.00 | 0.00 | 0.00 | 96 | 1017.1 |
| 20260507060512 | 22 | 76 | 3.2 | 4.8 | 0.00 | 0.00 | 0.00 | 96 | 1017.1 |
| 20260507060009 | 22 | 74 | 3.2 | 4.8 | 0.00 | 0.00 | 0.00 | 96 | 1017.3 |
| 20260507055503 | 23 | 52 | 1.6 | 3.2 | 0.00 | 0.00 | 0.00 | 96 | 1017.2 |
| 20260507055000 | 23 | 89 | 0.0 | 3.2 | 0.00 | 0.00 | 0.00 | 97 | 1017.4 |
| 20260507054456 | 23 | 125 | 1.6 | 3.2 | 0.00 | 0.00 | 0.00 | 97 | 1017.2 |
| 20260507053953 | 22 | 95 | 1.6 | 3.2 | 0.00 | 0.00 | 0.00 | 96 | 1017.4 |
| 20260507053451 | 23 | 45 | 3.2 | 4.8 | 0.00 | 0.00 | 0.00 | 96 | 1017.5 |
| 20260507052949 | 23 | 52 | 1.6 | 3.2 | 0.00 | 0.00 | 0.00 | 96 | 1017.5 |
| 20260507052447 | 23 | 80 | 3.2 | 3.2 | 0.00 | 0.00 | 0.00 | 96 | 1017.7 |
| 20260507051943 | 23 | 64 | 3.2 | 4.8 | 0.00 | 0.00 | 0.00 | 96 | 1017.6 |
| 20260507051441 | 23 | 75 | 3.2 | 3.2 | 0.00 | 0.00 | 0.00 | 96 | 1017.7 |
| 20260507050938 | 23 | 73 | 3.2 | 3.2 | 0.00 | 0.00 | 0.00 | 96 | 1017.7 |
| 20260507050434 | 23 | 87 | 3.2 | 3.2 | 0.00 | 0.00 | 0.00 | 96 | 1017.9 |
| 20260507045931 | 23 | 94 | 3.2 | 4.8 | 0.00 | 0.00 | 0.00 | 96 | 1018.2 |
| 20260507045428 | 23 | 69 | 3.2 | 4.8 | 0.00 | 0.00 | 0.00 | 96 | 1018.2 |
| 20260507044925 | 23 | 69 | 1.6 | 3.2 | 0.00 | 0.00 | 0.00 | 96 | 1018.3 |
| 20260507044422 | 23 | 58 | 3.2 | 3.2 | 0.00 | 0.00 | 0.00 | 96 | 1018.3 |
| 20260507043918 | 23 | 73 | 3.2 | 3.2 | 0.00 | 0.00 | 0.00 | 96 | 1018.3 |
| 20260507043414 | 23 | 89 | 1.6 | 3.2 | 0.00 | 0.00 | 0.00 | 96 | 1018.5 |
| 20260507042910 | 23 | 83 | 3.2 | 3.2 | 0.00 | 0.00 | 0.00 | 96 | 1018.5 |
| 20260507042407 | 23 | 69 | 3.2 | 4.8 | 0.00 | 0.00 | 0.00 | 96 | 1018.4 |
| 20260507041903 | 23 | 79 | 3.2 | 3.2 | 0.00 | 0.00 | 0.00 | 95 | 1018.4 |
| 20260507041400 | 23 | 72 | 4.8 | 4.8 | 0.00 | 0.00 | 0.00 | 96 | 1018.7 |
| 20260507040857 | 23 | 97 | 4.8 | 4.8 | 0.00 | 0.00 | 0.00 | 95 | 1018.8 |
| 20260507040353 | 23 | 80 | 1.6 | 3.2 | 0.00 | 0.00 | 0.00 | 95 | 1018.7 |
| 20260507035849 | 23 | 104 | 3.2 | 3.2 | 0.00 | 0.00 | 0.00 | 95 | 1018.8 |
| 20260507035345 | 23 | 87 | 1.6 | 3.2 | 0.00 | 0.00 | 0.00 | 96 | 1018.8 |
| 20260507034843 | 23 | 39 | 1.6 | 3.2 | 0.00 | 0.00 | 0.00 | 96 | 1018.8 |
| 20260507034339 | 23 | 89 | 4.8 | 4.8 | 0.00 | 0.00 | 0.00 | 96 | 1018.9 |
| 20260507033837 | 23 | 322 | 0.0 | 3.2 | 0.00 | 0.00 | 0.00 | 96 | 1018.9 |
| 20260507033335 | 23 | 135 | 0.0 | 3.2 | 0.00 | 0.00 | 0.00 | 96 | 1019.1 |
| 20260507032832 | 23 | 94 | 0.0 | 3.2 | 0.00 | 0.00 | 0.00 | 96 | 1018.8 |
| 20260507032328 | 23 | 60 | 1.6 | 3.2 | 0.00 | 0.00 | 0.00 | 96 | 1018.9 |
| 20260507031825 | 23 | 78 | 3.2 | 4.8 | 0.00 | 0.00 | 0.00 | 96 | 1019.1 |
| 20260507031322 | 23 | 77 | 3.2 | 3.2 | 0.00 | 0.00 | 0.00 | 96 | 1018.9 |
| 20260507030818 | 23 | 73 | 3.2 | 4.8 | 0.00 | 0.00 | 0.00 | 96 | 1019.1 |
| 20260507030316 | 23 | 44 | 0.0 | 3.2 | 0.00 | 0.00 | 0.00 | 96 | 1018.7 |
| 20260507025812 | 23 | 88 | 3.2 | 4.8 | 0.00 | 0.00 | 0.00 | 96 | 1018.9 |
| 20260507025310 | 23 | 75 | 3.2 | 3.2 | 0.00 | 0.00 | 0.00 | 95 | 1019.2 |
| 20260507024808 | 23 | 50 | 3.2 | 3.2 | 0.00 | 0.00 | 0.00 | 95 | 1018.8 |
| 20260507024304 | 23 | 89 | 3.2 | 4.8 | 0.00 | 0.00 | 0.00 | 95 | 1018.8 |